When you browse on this site, cookies collect data to enhance your experience and personalize the content and advertising you see.
Visit our Privacy Policy to learn more. By continuing to use the site, you agree to this use of cookies and data.

Stündliche Wetter Abcha

Heute, 13 Juli, Montag

Zeit Temperatur Niederschläge Wind Luftdruck Luftfeuchtigkeit
00:00 +30°C° 0 mm 3 m/S 640 mmHg 24%
01:00 +29°C° 0 mm 2 m/S 639 mmHg 25%
02:00 +29°C° 0 mm 2 m/S 639 mmHg 26%
03:00 +27°C° 0 mm 1 m/S 638 mmHg 30%
04:00 +27°C° 0 mm 1 m/S 639 mmHg 30%
05:00 +27°C° 0 mm 2 m/S 639 mmHg 30%
06:00 +27°C° 0 mm 2 m/S 639 mmHg 29%
07:00 +29°C° 0 mm 3 m/S 640 mmHg 26%
08:00 +31°C° 0 mm 3 m/S 640 mmHg 23%
09:00 +34°C° 0 mm 4 m/S 641 mmHg 20%
10:00 +34°C° 0 mm 4 m/S 641 mmHg 19%
11:00 +35°C° 0 mm 5 m/S 641 mmHg 19%
12:00 +36°C° 0 mm 5 m/S 641 mmHg 18%
13:00 +36°C° 0 mm 6 m/S 641 mmHg 20%
14:00 +35°C° 0 mm 6 m/S 640 mmHg 21%
15:00 +35°C° 0 mm 6 m/S 640 mmHg 23%
16:00 +34°C° 0 mm 6 m/S 640 mmHg 27%
17:00 +33°C° 0 mm 6 m/S 640 mmHg 31%
18:00 +32°C° 0 mm 5 m/S 640 mmHg 35%
19:00 +32°C° 0 mm 4 m/S 640 mmHg 36%
20:00 +30°C° 0 mm 3 m/S 640 mmHg 37%
21:00 +29°C° 0 mm 2 m/S 640 mmHg 38%
22:00 +29°C° 0 mm 2 m/S 640 mmHg 38%
23:00 +29°C° 0 mm 2 m/S 640 mmHg 38%

Morgen, 14 Juli, Dienstag

Zeit Temperatur Niederschläge Wind Luftdruck Luftfeuchtigkeit
00:00 +28°C° 0 mm 1 m/S 640 mmHg 38%
01:00 +28°C° 0 mm 2 m/S 640 mmHg 36%
02:00 +28°C° 0 mm 2 m/S 640 mmHg 35%
03:00 +27°C° 0 mm 2 m/S 639 mmHg 33%
04:00 +27°C° 0 mm 2 m/S 639 mmHg 33%
05:00 +26°C° 0 mm 2 m/S 640 mmHg 32%
06:00 +26°C° 0 mm 2 m/S 640 mmHg 32%
07:00 +28°C° 0 mm 2 m/S 640 mmHg 30%
08:00 +29°C° 0 mm 2 m/S 641 mmHg 29%
09:00 +31°C° 0 mm 2 m/S 641 mmHg 27%
10:00 +33°C° 0 mm 3 m/S 642 mmHg 25%
11:00 +35°C° 0 mm 4 m/S 642 mmHg 22%
12:00 +36°C° 0 mm 4 m/S 643 mmHg 19%
13:00 +36°C° 0 mm 5 m/S 642 mmHg 20%
14:00 +36°C° 0 mm 6 m/S 642 mmHg 21%
15:00 +36°C° 0 mm 7 m/S 642 mmHg 21%
16:00 +35°C° 0 mm 6 m/S 641 mmHg 24%
17:00 +34°C° 0 mm 6 m/S 641 mmHg 27%
18:00 +33°C° 0 mm 5 m/S 641 mmHg 30%
19:00 +32°C° 0 mm 4 m/S 641 mmHg 31%
20:00 +30°C° 0 mm 3 m/S 641 mmHg 33%
21:00 +29°C° 0 mm 2 m/S 641 mmHg 34%
22:00 +29°C° 0 mm 1 m/S 641 mmHg 34%
23:00 +29°C° 0 mm 1 m/S 641 mmHg 35%

übermorgen, 15 Juli, Mittwoch

Zeit Temperatur Niederschläge Wind Luftdruck Luftfeuchtigkeit
00:00 +28°C° 0 mm 1 m/S 641 mmHg 35%
01:00 +28°C° 0 mm 1 m/S 641 mmHg 34%
02:00 +28°C° 0 mm 2 m/S 640 mmHg 32%
03:00 +28°C° 0 mm 2 m/S 640 mmHg 31%
04:00 +27°C° 0 mm 2 m/S 640 mmHg 30%
05:00 +27°C° 0 mm 2 m/S 640 mmHg 30%
06:00 +26°C° 0 mm 2 m/S 640 mmHg 29%
07:00 +29°C° 0 mm 2 m/S 641 mmHg 25%
08:00 +31°C° 0 mm 3 m/S 642 mmHg 21%
09:00 +34°C° 0 mm 3 m/S 643 mmHg 17%
10:00 +35°C° 0 mm 4 m/S 643 mmHg 15%
11:00 +37°C° 0 mm 4 m/S 643 mmHg 14%
12:00 +39°C° 0 mm 5 m/S 643 mmHg 12%
13:00 +39°C° 0 mm 5 m/S 643 mmHg 13%
14:00 +39°C° 0 mm 5 m/S 642 mmHg 15%
15:00 +39°C° 0 mm 5 m/S 642 mmHg 16%
16:00 +37°C° 0 mm 5 m/S 642 mmHg 17%
17:00 +36°C° 0 mm 4 m/S 641 mmHg 19%
18:00 +35°C° 0 mm 4 m/S 641 mmHg 20%
19:00 +34°C° 0 mm 3 m/S 641 mmHg 22%
20:00 +32°C° 0 mm 2 m/S 641 mmHg 25%
21:00 +30°C° 0 mm 1 m/S 641 mmHg 27%
22:00 +30°C° 0 mm 1 m/S 641 mmHg 28%
23:00 +29°C° 0 mm 1 m/S 640 mmHg 29%

16 Juli, Donnerstag

Zeit Temperatur Niederschläge Wind Luftdruck Luftfeuchtigkeit
00:00 +29°C° 0 mm 1 m/S 640 mmHg 30%
01:00 +29°C° 0 mm 1 m/S 640 mmHg 29%
02:00 +28°C° 0 mm 2 m/S 639 mmHg 28%
03:00 +28°C° 0 mm 2 m/S 639 mmHg 27%
04:00 +28°C° 0 mm 2 m/S 639 mmHg 28%
05:00 +27°C° 0 mm 2 m/S 639 mmHg 29%
06:00 +26°C° 0 mm 2 m/S 639 mmHg 30%
07:00 +28°C° 0 mm 2 m/S 640 mmHg 27%
08:00 +31°C° 0 mm 3 m/S 641 mmHg 24%
09:00 +34°C° 0 mm 3 m/S 642 mmHg 20%
10:00 +34°C° 0 mm 3 m/S 642 mmHg 22%
11:00 +35°C° 0 mm 4 m/S 642 mmHg 23%
12:00 +36°C° 0 mm 4 m/S 642 mmHg 24%
13:00 +35°C° 0 mm 4 m/S 641 mmHg 29%
14:00 +35°C° 0 mm 5 m/S 641 mmHg 34%
15:00 +34°C° 0 mm 5 m/S 640 mmHg 39%
16:00 +33°C° 0.2 mm 4 m/S 640 mmHg 40%
17:00 +33°C° 0.2 mm 4 m/S 640 mmHg 41%
18:00 +31°C° 0.2 mm 3 m/S 640 mmHg 43%
19:00 +30°C° 0 mm 3 m/S 640 mmHg 45%
20:00 +29°C° 0 mm 2 m/S 640 mmHg 47%
21:00 +29°C° 0 mm 2 m/S 641 mmHg 49%
22:00 +28°C° 0 mm 2 m/S 640 mmHg 48%
23:00 +28°C° 0 mm 1 m/S 640 mmHg 48%

17 Juli, Freitag

Zeit Temperatur Niederschläge Wind Luftdruck Luftfeuchtigkeit
00:00 +28°C° 0 mm 1 m/S 640 mmHg 47%
01:00 +27°C° 0 mm 1 m/S 640 mmHg 45%
02:00 +27°C° 0 mm 2 m/S 639 mmHg 44%
03:00 +27°C° 0 mm 2 m/S 639 mmHg 42%
04:00 +26°C° 0 mm 2 m/S 639 mmHg 41%
05:00 +26°C° 0 mm 2 m/S 639 mmHg 39%
06:00 +26°C° 0 mm 2 m/S 639 mmHg 38%
07:00 +27°C° 0 mm 3 m/S 640 mmHg 37%
08:00 +28°C° 0 mm 3 m/S 641 mmHg 36%
09:00 +29°C° 0 mm 3 m/S 642 mmHg 35%
10:00 +32°C° 0 mm 4 m/S 642 mmHg 31%
11:00 +33°C° 0 mm 4 m/S 642 mmHg 28%
12:00 +34°C° 0 mm 5 m/S 642 mmHg 24%
13:00 +34°C° 0 mm 5 m/S 642 mmHg 25%
14:00 +34°C° 0 mm 6 m/S 642 mmHg 26%
15:00 +34°C° 0 mm 7 m/S 641 mmHg 27%
16:00 +33°C° 0 mm 7 m/S 641 mmHg 33%
17:00 +32°C° 0 mm 6 m/S 640 mmHg 38%
18:00 +30°C° 0 mm 6 m/S 640 mmHg 43%
19:00 +29°C° 0 mm 5 m/S 640 mmHg 46%
20:00 +28°C° 0 mm 4 m/S 640 mmHg 49%
21:00 +27°C° 0 mm 3 m/S 641 mmHg 52%
22:00 +27°C° 0 mm 2 m/S 640 mmHg 51%
23:00 +27°C° 0 mm 2 m/S 640 mmHg 51%

18 Juli, Samstag

Zeit Temperatur Niederschläge Wind Luftdruck Luftfeuchtigkeit
00:00 +27°C° 0 mm 1 m/S 640 mmHg 50%
01:00 +27°C° 0 mm 1 m/S 640 mmHg 50%
02:00 +26°C° 0 mm 2 m/S 640 mmHg 50%
03:00 +26°C° 0 mm 2 m/S 639 mmHg 49%
04:00 +26°C° 0 mm 2 m/S 640 mmHg 47%
05:00 +25°C° 0 mm 2 m/S 640 mmHg 46%
06:00 +25°C° 0 mm 3 m/S 640 mmHg 44%
07:00 +27°C° 0 mm 3 m/S 641 mmHg 39%
08:00 +29°C° 0 mm 4 m/S 641 mmHg 34%
09:00 +30°C° 0 mm 5 m/S 642 mmHg 30%
10:00 +33°C° 0 mm 5 m/S 642 mmHg 27%
11:00 +34°C° 0 mm 5 m/S 642 mmHg 24%
12:00 +36°C° 0 mm 6 m/S 642 mmHg 21%
13:00 +35°C° 0 mm 6 m/S 642 mmHg 24%
14:00 +35°C° 0 mm 6 m/S 641 mmHg 28%
15:00 +34°C° 0 mm 6 m/S 640 mmHg 31%
16:00 +33°C° 0 mm 5 m/S 640 mmHg 35%
17:00 +32°C° 0 mm 5 m/S 640 mmHg 38%
18:00 +32°C° 0 mm 4 m/S 640 mmHg 41%
19:00 +30°C° 0 mm 3 m/S 640 mmHg 45%
20:00 +29°C° 0 mm 2 m/S 640 mmHg 48%
21:00 +28°C° 0 mm 1 m/S 640 mmHg 52%
22:00 +28°C° 0 mm 1 m/S 640 mmHg 52%
23:00 +26°C° 0 mm 0 m/S 640 mmHg 52%
Mehr zeigen